map of ERZ home
ERZ - Airport
Location
City:  Erzurum, Erzurum, Turkey
ICAO:LTCE
IATA:ERZ

Details
Type:Airport (Aerodrome, Airfield)
Use:Public/Civil, Military
Latitude:3957'23"N (39.956501)
Longitude:4110'13"E (41.170166)
Datum:WGS 1984
Elevation:5763 ft (1757 m)
Variation:6.21E (WMM2015v2 magnetic declination)
0.08 annual change
Runways:3
Longest:12500 × 98 ft (3810 × 30 m), paved

Time
Time Zone:UTC+3
Local Time:

Weather
METAR:LTCE 041350Z 04002KT 6000 NSC M12/M14 Q1029 NOSIG RMK RWY08R 02003KT RWY26R 04003KT RWY08L 05004KT

Related Locations
Nearby:
Farthest:GMR: 11245 mi / 18097 km
Mangareva [Totegegie], Gambier Islands, PF

Find:

   beyond  
but within

Other Information
Maps:
NOTAMs:
Links:
Sources:

  
  • flag of Turkey
  

Sectional Chart

Flight Planning
at skyvector.com

Satellite Image

Google Maps Satellite view

 

Copyright © 2004-2019 Karl L. Swartz. All rights reserved.
The Great Circle Mapper name and logo are trademarks of the Great Circle Mapper.
All other trademarks mentioned herein belong to their respective owners.
Please see credits for attibutions and further copyright information.

  Follow gcmap on Facebook Follow gcmap on Twitter GCmap on LinkedIn

hCard Microformat

Geo Microformat